Theta_e
339 341 344 340 341 342 340 339 341 338 339 337 336 336 335 336 338 338 336 335 339 338 338 339 338 337 336 336 338 339 340 341 342 341 340 339 341 341 341 341 340 340 339 338 338 337 336 335 335 334 334 334 334 334 334 333 331 331 330 329 328 328 328 328 329 329 328 328 328 328 328 327 328 327 327 327 327 326 326 326 325 326 326 326 326
341 339 341 342 340 341 340 339 338 338 340 340 338 337 336 338 338 335 332 334 337 338 339 338 334 336 334 336 336 339 341 339 340 341 339 339 340 340 341 341 341 341 337 338 338 337 337 336 335 334 333 334 334 335 335 334 333 333 332 331 330 329 329 328 328 329 329 328 328 328 328 328 328 327 327 327 327 327 327 326 326 326 325 325 325
340 340 341 338 339 339 338 339 338 339 340 339 340 339 337 337 336 333 335 335 335 340 337 342 335 333 336 333 336 340 339 340 338 339 338 340 339 339 340 341 341 341 341 339 338 338 338 336 336 335 335 336 336 336 336 335 334 333 333 333 332 330 329 329 329 328 329 328 327 327 327 327 328 327 327 326 326 326 326 326 326 325 325 325 324
346 339 339 338 337 338 339 339 340 340 340 340 339 340 338 337 335 337 338 338 337 339 339 337 336 337 333 333 335 337 337 339 338 340 340 340 339 338 339 338 341 341 340 339 338 338 338 337 337 337 337 336 337 336 336 335 335 334 334 334 333 331 329 329 329 329 329 329 328 327 327 327 327 327 326 326 325 325 325 325 325 325 325 325 325
346 344 338 335 337 338 338 342 341 341 341 340 341 341 343 341 341 341 339 338 337 338 338 335 336 335 335 336 336 335 337 336 338 340 339 340 340 338 338 338 338 340 340 339 339 338 337 337 338 338 337 338 337 338 337 336 336 336 335 334 333 333 331 329 329 329 329 329 329 329 327 327 327 326 326 325 325 325 325 325 325 325 325 325 325
344 343 341 339 340 342 342 340 341 342 342 343 339 342 340 340 341 340 337 337 336 339 334 336 332 334 339 335 336 338 338 335 337 337 338 338 338 340 342 338 339 336 338 339 339 338 337 337 337 338 338 338 337 338 337 337 337 337 336 335 334 333 333 331 329 329 330 330 329 329 329 327 326 326 326 325 325 325 325 325 325 325 325 325 325
341 343 343 340 340 339 338 339 342 342 341 344 344 341 341 339 337 336 338 336 335 338 337 338 336 336 337 339 338 338 338 337 336 337 338 340 339 339 340 338 344 338 337 338 339 338 338 337 338 338 338 337 337 338 338 338 337 337 336 336 335 334 334 334 331 330 330 330 330 330 329 329 328 326 325 325 325 325 325 325 325 325 325 324 324
341 342 342 341 340 338 339 340 341 342 343 343 341 338 338 338 338 339 336 336 335 336 338 341 337 336 336 338 338 338 337 337 336 337 337 339 339 338 338 339 339 337 338 339 337 338 337 337 337 337 337 337 338 337 338 338 337 337 336 336 336 336 335 335 334 332 332 330 330 330 330 329 329 328 327 326 325 325 325 325 325 325 324 324 324
342 342 343 342 342 342 340 341 341 340 338 343 339 338 339 338 341 338 338 335 334 335 339 336 336 336 337 336 338 339 336 336 337 338 338 336 337 336 338 338 338 339 340 341 341 338 337 336 335 335 335 335 337 338 338 338 337 337 338 336 336 337 336 336 335 334 334 332 331 331 331 330 330 329 328 327 326 326 325 325 325 325 325 325 324
340 341 342 341 341 341 340 341 341 342 341 341 339 342 341 341 336 338 338 335 334 335 334 336 334 335 335 336 338 340 339 340 337 336 339 336 335 337 338 339 339 340 339 339 341 340 337 336 334 333 333 333 334 336 338 338 337 337 338 337 336 337 336 336 336 335 334 334 333 333 331 330 330 331 330 328 327 327 326 326 326 325 325 325 325
341 341 341 340 339 340 340 341 341 337 340 340 339 340 340 341 336 336 336 337 336 337 335 335 333 332 334 335 334 335 337 337 336 338 337 334 335 334 336 338 338 337 339 339 339 340 339 338 337 334 332 332 334 336 337 338 337 336 337 337 337 336 336 335 335 334 334 334 333 333 332 331 331 331 331 330 329 328 328 327 327 327 325 325 325
338 341 342 343 342 341 341 340 344 340 339 337 341 338 339 340 335 335 333 335 339 337 337 335 332 331 329 333 334 334 334 335 334 334 335 337 335 337 336 334 335 337 335 337 337 338 339 338 337 338 332 334 334 335 336 336 337 336 336 337 337 337 336 337 335 335 334 335 334 333 333 332 332 332 331 332 331 330 329 329 328 328 327 326 326
338 341 341 342 340 340 338 338 340 338 339 339 339 338 340 340 342 336 333 334 333 336 336 334 329 328 332 333 333 335 335 335 333 332 331 336 338 336 334 335 334 336 335 337 335 336 336 335 335 335 333 336 335 334 335 335 336 336 336 337 338 337 336 336 335 335 335 334 334 334 333 333 332 332 332 331 331 331 331 330 330 329 329 327 328
341 342 342 342 340 341 336 335 338 340 340 341 341 339 340 338 337 336 335 336 335 340 337 331 329 326 324 327 331 334 334 334 336 332 334 333 334 335 337 335 335 335 335 335 334 334 334 334 334 335 334 335 336 337 337 335 335 336 336 336 336 336 337 337 336 335 335 334 333 333 333 332 332 333 333 332 331 332 331 331 331 331 330 329 329
341 340 341 340 338 336 334 334 338 339 340 339 338 340 339 339 338 334 333 335 336 338 337 336 327 329 328 325 321 321 326 332 333 333 331 334 333 333 333 334 333 334 334 333 331 331 331 332 334 335 337 336 335 334 335 334 335 336 336 335 336 337 337 337 336 337 335 335 334 334 333 332 332 333 332 333 332 332 332 332 331 331 331 331 330
339 339 339 336 334 334 335 337 337 340 339 338 338 336 338 337 337 335 333 329 334 333 336 332 333 327 321 322 321 322 317 321 326 328 331 331 331 331 332 332 332 333 333 329 327 329 330 331 332 333 335 335 334 335 334 334 333 334 334 335 335 335 337 337 336 336 335 334 334 333 332 332 332 333 333 332 330 329 329 329 330 330 330 330 330
336 337 338 336 336 338 336 338 338 340 338 337 337 336 337 340 337 336 335 330 329 331 331 333 333 335 327 322 321 318 318 321 323 324 330 327 328 330 332 330 330 330 327 324 325 327 328 330 332 332 333 334 335 334 333 333 333 333 331 331 333 334 333 334 335 335 334 332 332 332 330 330 331 331 331 331 330 328 326 326 326 327 328 328 329
335 336 335 336 338 340 340 338 340 339 340 339 338 336 336 338 338 338 335 331 332 331 331 333 335 334 334 334 328 320 319 322 322 317 328 329 328 328 330 331 329 327 324 323 323 325 327 329 332 331 331 331 331 331 332 333 332 329 328 326 327 329 328 330 330 331 333 332 332 331 330 329 329 329 328 328 328 327 326 324 323 323 324 325 326
338 339 338 338 339 338 339 338 337 338 338 339 340 336 336 334 336 336 336 334 334 329 330 328 332 335 335 335 334 333 328 322 319 321 317 323 326 326 327 327 327 323 321 322 324 325 327 328 329 328 329 330 330 330 329 327 324 323 323 321 322 322 322 324 327 326 326 326 327 328 329 329 328 326 326 325 325 325 324 323 322 322 321 322 323
341 339 339 339 339 339 339 339 337 337 337 337 338 337 336 335 337 339 339 337 335 332 330 330 328 328 334 334 333 333 330 331 326 322 320 318 319 325 327 327 325 323 322 323 324 324 324 324 323 325 327 327 328 328 329 327 326 323 323 320 320 320 319 318 318 322 322 322 322 323 325 327 328 326 325 325 324 323 323 323 323 322 321 321 321
340 341 341 339 339 339 339 339 339 337 337 336 337 337 339 335 334 336 336 335 336 335 331 331 331 329 330 329 329 329 330 333 333 327 323 319 318 320 321 325 325 322 323 323 323 323 322 322 321 322 326 327 328 327 325 324 323 322 320 318 319 319 318 317 314 313 316 322 322 322 323 324 326 326 325 324 324 323 323 322 322 322 322 322 321
339 340 342 340 340 340 339 338 339 338 337 336 336 336 337 337 336 337 338 336 336 335 332 331 334 334 333 328 326 326 324 327 327 327 325 324 318 317 319 318 316 318 322 320 321 320 319 320 320 319 321 322 322 321 321 321 320 319 318 316 317 317 316 316 314 314 317 320 321 321 321 323 325 326 325 326 326 325 324 323 323 322 322 321 321
338 338 338 338 339 341 340 339 339 340 338 337 337 336 337 338 335 337 335 335 334 332 330 335 335 333 331 329 327 328 325 321 324 325 322 322 318 318 319 319 316 315 318 319 319 318 319 320 319 318 319 320 319 319 319 318 319 317 316 316 316 318 315 313 311 312 317 319 321 321 319 320 320 319 320 321 322 324 325 326 326 323 322 321 321
337 336 337 336 338 340 341 340 339 340 338 338 338 336 337 336 336 336 333 334 334 332 331 332 332 330 331 331 330 330 330 326 326 327 327 323 320 318 318 318 315 315 315 318 318 317 317 317 317 318 317 316 314 314 315 315 317 318 317 315 315 314 315 312 309 309 309 313 316 319 319 320 319 319 318 317 319 320 321 321 320 320 323 322 320
334 335 336 337 336 337 339 341 340 341 341 339 339 337 337 339 338 335 337 335 336 335 334 328 331 330 331 332 332 330 330 330 330 329 331 329 323 318 318 317 312 310 312 313 313 315 316 315 315 316 316 314 312 312 312 314 315 317 315 314 313 313 313 314 312 308 307 308 312 316 317 317 317 317 317 316 317 317 315 315 312 310 311 314 319
333 333 335 334 334 336 336 338 339 341 339 340 339 338 337 335 336 335 335 336 336 338 335 331 331 333 334 333 333 331 330 331 334 332 329 326 323 320 318 317 313 308 309 311 312 310 311 313 315 315 314 314 314 314 315 313 315 316 315 313 312 310 310 310 312 312 309 309 310 312 315 315 315 315 314 313 313 313 312 311 310 309 308 309 310
331 334 334 334 334 335 335 335 336 341 338 339 339 339 338 336 335 336 336 335 335 334 336 332 329 330 333 334 334 333 331 331 331 330 330 328 325 322 319 314 310 310 308 309 309 310 309 312 314 314 315 319 318 316 313 313 314 315 314 315 313 308 308 309 311 311 310 308 307 307 307 308 310 310 310 310 311 311 311 311 310 309 309 309 311
334 333 333 333 332 333 334 334 335 336 340 339 338 338 339 337 336 337 337 336 336 337 336 336 334 330 331 337 334 332 333 331 332 334 331 329 327 325 321 316 310 307 309 306 308 308 311 310 312 314 315 316 317 316 315 312 311 313 315 315 313 311 308 309 310 311 310 307 305 304 304 305 306 308 308 310 310 310 309 309 309 310 310 311 310
333 334 333 332 332 332 331 331 334 335 336 339 339 339 338 338 337 338 338 338 337 334 334 336 338 338 338 336 333 333 333 331 332 332 332 330 328 324 321 317 315 310 307 306 309 306 309 311 309 312 315 316 317 315 312 311 312 314 316 314 314 313 309 307 307 308 307 307 306 306 305 305 306 307 310 310 309 309 308 308 307 308 309 310 310
333 333 333 332 332 330 330 331 334 334 333 333 332 335 338 337 338 338 338 338 336 335 336 336 337 335 335 334 333 333 331 331 334 334 330 331 325 324 322 320 318 313 311 308 308 310 309 312 312 310 313 315 317 316 314 312 313 313 316 315 315 315 306 306 305 304 304 306 305 305 304 304 306 308 309 308 308 306 307 306 306 307 309 308 308
331 332 331 330 331 331 331 331 332 333 333 333 332 332 332 334 336 337 336 337 335 333 336 335 336 335 333 332 333 332 333 332 333 332 332 330 326 324 322 321 319 324 314 313 308 311 313 311 312 312 312 315 316 316 314 313 312 313 318 318 316 310 306 307 305 304 305 304 304 303 304 304 305 306 308 309 309 307 307 307 305 305 308 306 306
330 331 330 329 329 329 329 329 329 331 331 332 333 331 331 332 333 333 334 334 332 332 332 333 333 333 331 331 332 332 332 331 332 331 329 328 328 323 323 322 318 321 317 314 311 310 315 314 313 312 313 315 315 314 316 313 313 313 318 318 317 307 307 309 304 304 305 304 303 305 309 307 305 306 307 309 309 309 309 307 305 307 308 306 304
330 330 329 329 327 328 327 327 327 329 329 331 332 331 331 331 334 332 331 332 330 332 331 332 332 332 330 330 331 330 333 331 329 328 326 325 324 323 323 319 317 319 317 316 313 312 317 320 317 312 314 315 314 315 314 315 314 314 314 318 314 313 311 312 308 304 303 303 303 304 306 306 304 307 307 307 307 307 306 304 305 305 303 305 304
329 327 328 329 327 327 326 325 326 327 328 328 330 331 329 330 331 333 332 329 327 326 328 326 328 331 331 331 331 330 331 329 329 324 324 325 321 320 319 318 315 316 320 315 313 313 313 318 316 315 313 315 312 315 315 316 314 314 312 316 315 315 313 314 312 308 302 303 302 302 305 304 303 306 304 303 303 304 304 303 303 303 303 301 300
329 328 328 325 325 325 326 326 326 327 328 328 330 329 329 328 327 328 328 327 326 326 326 326 326 332 331 330 329 331 330 329 327 325 324 322 320 318 318 316 316 317 317 316 315 314 314 315 319 315 315 314 315 313 315 316 316 314 312 313 315 315 315 315 314 313 302 302 301 301 303 302 303 304 303 302 303 303 303 302 302 302 301 301 300
327 329 326 324 323 326 326 326 327 327 327 329 329 327 326 326 325 325 326 327 326 326 326 324 323 325 327 329 329 331 331 328 327 325 323 322 320 318 317 319 318 314 319 319 318 317 315 314 316 315 315 315 314 316 315 316 316 315 314 313 315 316 316 315 315 316 305 302 301 302 302 303 303 303 302 302 302 302 302 301 301 301 301 300 301
327 326 323 324 324 325 327 325 325 326 326 327 326 325 326 326 325 325 325 324 326 324 325 323 326 323 324 324 327 331 331 330 327 324 323 323 320 319 317 317 318 317 320 318 319 318 316 315 315 316 317 316 317 317 317 314 314 316 316 315 315 315 316 317 317 313 304 302 301 301 301 302 303 302 302 302 302 302 301 301 301 301 300 301 301
326 324 323 323 322 323 323 324 323 323 324 325 325 325 325 325 325 325 325 325 324 324 324 323 322 324 324 323 324 325 331 327 327 325 326 323 320 320 318 318 317 319 321 319 320 319 317 316 317 313 317 315 315 316 317 317 315 314 315 316 317 317 316 317 316 308 308 304 305 304 303 303 302 302 302 302 301 301 301 301 300 300 300 300 300
324 323 322 322 323 323 322 323 323 323 322 322 324 325 325 325 325 324 324 324 324 324 323 322 323 324 325 324 325 325 325 329 329 328 326 324 323 322 321 322 318 319 318 319 317 317 318 317 316 318 316 317 319 316 316 318 317 316 315 315 315 315 317 316 316 312 309 307 304 302 303 304 305 304 302 301 301 301 301 300 300 300 299 298 297
323 321 320 320 322 323 324 323 323 323 323 322 322 322 323 324 325 325 324 325 324 324 324 323 324 324 325 324 324 324 324 325 327 327 331 326 325 323 324 322 322 321 320 319 319 317 317 317 316 317 317 317 316 317 317 316 315 314 314 314 313 314 315 318 317 316 315 313 312 308 305 304 304 303 300 301 301 301 300 300 301 300 298 297 297
322 320 321 320 321 322 322 323 322 324 324 318 312 310 315 320 322 324 325 324 324 323 323 323 324 324 324 324 323 324 322 315 307 310 312 316 332 325 325 324 323 322 321 320 319 317 317 317 316 317 316 315 316 317 315 314 314 313 317 317 314 314 315 318 316 316 316 316 314 313 310 310 307 307 304 304 304 302 302 301 302 300 298 297 298
322 321 320 320 320 321 320 321 326 323 320 313 301 296 298 310 319 321 324 324 324 324 323 322 323 323 323 324 323 315 313 311 307 303 300 302 306 318 324 325 323 321 321 319 319 318 318 315 315 316 315 314 315 317 317 317 318 319 317 317 314 314 316 314 317 320 317 318 316 314 313 312 310 308 307 306 306 304 304 304 304 301 299 297 299
323 322 322 319 319 320 320 323 321 318 313 304 294 293 294 294 312 324 323 322 323 322 322 322 321 321 321 322 323 322 320 316 321 299 302 302 300 298 299 303 308 320 322 320 318 319 317 316 317 316 315 315 316 317 317 316 319 317 317 317 316 315 314 311 310 317 320 320 319 316 316 316 313 310 309 309 309 305 306 305 303 300 298 298 299
323 324 323 322 323 324 323 321 318 315 309 295 291 293 293 293 297 316 325 323 323 322 322 321 320 321 320 322 323 322 323 327 323 320 313 300 304 303 301 299 297 295 299 316 319 319 320 317 316 317 316 315 316 317 316 317 317 318 318 317 317 315 314 313 313 312 318 324 318 316 315 319 314 312 313 312 311 307 308 306 300 299 298 298 299
325 324 326 324 323 321 319 315 313 311 309 293 292 292 293 292 292 303 323 322 320 321 323 322 323 322 321 322 323 323 320 318 320 321 322 324 301 294 298 300 300 298 299 298 299 316 320 319 320 319 318 318 317 317 321 322 322 318 320 317 317 317 316 314 314 314 319 323 319 315 313 316 317 312 313 315 316 314 307 300 299 298 298 298 298
322 322 321 320 319 317 315 313 310 308 304 294 291 291 292 291 292 297 325 323 323 322 322 322 323 323 323 323 323 322 324 324 324 325 321 323 325 325 325 323 321 318 300 297 296 294 305 319 319 319 323 324 320 323 327 326 321 318 318 318 321 318 317 315 319 319 321 322 318 316 314 315 317 315 312 315 316 313 308 301 297 298 298 298 298
318 317 317 316 315 314 313 311 309 305 301 291 291 291 292 291 291 297 325 323 322 323 324 324 324 324 325 325 324 323 326 322 309 307 323 325 326 325 324 325 325 324 324 325 324 322 322 322 321 320 322 324 324 328 328 329 327 323 323 323 324 322 322 323 325 324 323 321 321 318 312 315 318 314 313 315 316 314 311 297 297 297 297 297 297
316 316 316 316 315 313 312 311 308 304 301 291 291 291 291 291 292 319 323 323 323 325 326 327 325 327 327 328 327 327 327 318 299 293 298 313 323 323 322 322 322 323 324 319 317 317 324 325 325 324 325 325 306 324 327 331 329 331 325 325 323 321 318 316 317 320 318 322 321 317 314 314 318 315 314 315 315 313 311 302 297 298 297 297 297
310 311 313 313 314 315 313 312 309 305 302 294 290 291 291 290 299 319 322 321 323 323 324 325 324 326 327 322 322 324 323 311 294 292 293 299 323 323 323 323 324 323 323 325 311 303 300 298 296 296 295 295 297 297 296 295 315 321 326 321 320 320 318 316 316 317 318 320 319 318 315 312 315 315 314 314 314 312 312 306 303 297 297 297 296
306 307 308 307 308 309 310 310 310 306 302 295 290 291 291 290 296 314 317 319 320 320 321 322 323 323 315 311 319 322 316 306 291 291 291 304 317 320 322 322 322 322 325 327 328 327 306 304 301 298 296 296 295 294 293 294 295 302 322 316 318 321 315 314 313 315 315 317 320 318 313 311 315 316 313 314 313 312 312 310 304 301 296 296 296
307 306 306 306 305 306 306 306 306 309 306 299 291 291 291 291 298 309 313 314 315 316 316 316 318 319 317 306 300 304 304 296 289 290 290 299 309 313 315 317 318 320 322 323 325 325 325 325 325 324 316 308 311 314 315 301 297 303 318 319 319 318 316 316 314 313 313 315 319 318 311 312 312 313 312 310 308 311 313 309 303 303 300 300 299
Wind_Speed
3 5 2 8 7 5 5 5 5 5 6 6 6 6 5 6 6 5 5 5 5 6 7 11 5 4 5 6 5 5 5 6 6 8 8 7 7 9 11 9 8 8 8 8 8 8 8 8 9 8 8 9 9 9 8 7 7 7 7 6 6 7 7 7 8 9 9 9 10 10 11 10 10 10 11 11 12 12 12 12 13 13 13 13 12
4 5 7 3 5 5 4 4 5 5 5 4 4 5 6 5 5 6 7 8 6 6 6 2 4 5 4 4 6 5 5 6 7 9 7 7 8 9 11 9 5 3 6 8 9 8 8 9 9 9 9 8 8 7 8 6 7 7 7 7 6 6 6 7 7 8 8 8 8 9 9 9 10 10 9 10 11 11 11 12 12 12 12 12 12
8 9 5 7 6 5 5 5 4 4 3 3 3 4 4 4 5 6 7 7 6 5 1 1 2 6 3 6 5 5 5 5 7 7 9 7 8 8 10 8 10 11 10 9 8 8 8 9 9 8 7 7 7 7 6 6 4 5 6 7 7 6 5 6 7 7 7 7 7 7 8 8 9 9 9 10 10 10 10 11 11 11 12 11 12
4 5 5 5 5 5 5 4 4 4 4 5 5 5 5 4 8 6 7 3 6 2 6 3 3 6 2 1 6 5 5 5 8 8 8 6 7 8 7 8 11 11 10 7 7 8 8 8 7 7 6 5 5 4 4 5 5 3 3 5 6 6 6 5 5 6 6 6 7 7 7 7 8 8 8 9 8 9 10 9 10 11 10 11 11
1 3 5 4 5 5 5 5 5 2 2 4 5 5 5 7 6 4 5 6 8 7 5 0 3 2 3 5 4 5 5 6 7 8 7 6 5 6 7 8 9 11 11 9 8 7 6 5 5 5 4 4 4 3 2 1 2 4 4 3 4 5 5 5 5 5 6 7 7 7 7 7 7 8 8 8 8 8 8 9 9 9 9 10 10
3 3 3 4 5 5 5 5 4 4 4 4 5 5 5 5 5 5 5 4 5 8 3 2 7 1 8 5 5 4 4 5 8 7 8 6 5 5 5 6 6 7 8 9 8 7 6 5 4 5 3 2 4 4 3 2 1 2 4 4 4 4 4 4 4 4 4 5 6 7 7 7 7 7 7 7 7 7 7 7 8 8 8 9 10
7 4 3 4 4 4 4 3 4 5 5 2 3 5 4 5 4 6 5 4 3 6 3 4 5 5 4 1 4 4 3 4 6 7 7 6 6 4 4 5 3 5 4 5 8 8 7 6 6 5 5 4 5 5 4 4 2 2 3 5 5 5 5 5 5 5 5 4 5 6 7 7 6 5 5 5 6 6 6 7 7 7 7 8 8
8 6 5 4 4 5 4 4 5 5 4 5 8 6 6 5 6 4 3 3 5 5 1 3 5 5 5 3 4 3 3 4 6 8 4 5 5 5 4 4 4 6 5 4 4 6 8 8 8 8 8 8 7 6 5 4 3 2 1 2 4 4 4 4 5 4 4 4 3 5 5 6 6 5 4 4 4 5 5 6 6 7 7 7 7
7 7 5 5 3 4 5 6 5 6 6 7 7 5 5 5 4 6 3 5 3 4 3 4 4 4 2 4 4 3 3 3 7 6 6 6 4 4 4 4 4 6 4 3 4 5 7 9 9 9 8 9 8 8 8 7 5 4 2 2 3 4 5 4 3 4 4 5 3 4 5 5 5 6 4 3 3 4 4 5 6 6 6 6 6
7 6 5 6 6 6 6 5 7 0 6 5 5 4 2 5 4 3 1 2 2 3 4 3 5 4 4 5 4 6 5 6 5 3 3 5 4 2 2 2 3 4 4 4 4 4 5 6 9 9 8 6 7 8 8 9 7 6 4 5 4 4 3 4 3 3 3 4 5 4 5 5 3 5 4 3 3 2 3 2 5 5 5 5 6
5 5 6 6 6 6 5 6 5 5 8 6 5 4 5 7 4 4 1 3 3 4 5 5 3 6 4 8 6 3 5 4 4 3 2 4 6 6 4 1 2 4 5 4 4 3 4 4 3 3 5 6 7 8 9 10 9 7 7 5 4 5 5 5 4 2 2 2 3 3 5 5 4 2 3 3 3 2 1 2 1 3 3 4 5
2 4 4 4 1 0 2 4 4 5 8 6 2 4 6 5 11 8 5 3 2 3 4 5 6 9 9 5 5 4 4 3 2 1 2 4 5 5 5 9 8 6 8 5 6 5 4 6 4 3 6 6 6 8 10 9 9 9 8 8 8 8 8 8 8 7 5 5 5 5 4 4 4 2 2 2 2 2 0 1 1 2 2 2 4
9 6 6 3 3 1 1 4 5 9 5 5 5 5 5 5 3 7 10 7 6 6 7 6 6 6 6 6 6 4 4 4 4 5 6 3 1 4 5 6 5 5 5 4 5 4 4 3 6 4 7 6 6 11 11 11 11 12 12 12 11 12 11 11 11 9 10 9 9 9 6 5 4 1 1 3 5 1 1 1 1 1 3 2 1
5 6 5 4 3 2 2 2 9 5 4 4 3 5 5 5 6 6 6 7 5 5 5 8 3 7 8 6 5 4 4 1 2 3 4 4 5 4 4 4 5 5 6 6 6 5 4 4 4 3 7 6 6 4 6 8 11 12 13 13 13 14 14 14 13 14 13 11 11 9 8 8 8 8 6 6 3 6 6 4 3 3 3 3 1
6 6 5 5 3 3 5 6 9 6 2 4 6 5 5 5 6 5 6 3 5 3 5 3 4 7 8 8 7 6 4 2 1 2 3 6 4 5 4 6 6 4 5 4 4 5 5 5 5 4 4 5 7 7 8 10 10 13 13 14 15 14 15 16 17 17 17 17 16 16 15 14 13 13 13 14 13 12 13 14 14 13 12 8 4
6 6 6 5 4 5 6 8 9 5 5 5 5 6 3 5 4 4 8 0 4 6 4 3 2 9 7 4 7 6 7 5 4 5 10 8 5 6 4 6 7 5 4 5 5 5 5 6 5 5 4 5 7 6 8 9 12 14 14 12 12 13 15 16 17 17 18 17 18 18 17 17 17 16 16 16 15 14 14 14 14 14 16 16 16
2 3 3 3 8 10 10 8 7 4 4 5 4 5 5 5 5 3 7 5 5 4 6 8 9 2 2 6 5 5 4 7 7 5 3 4 4 5 4 5 6 5 4 6 6 6 6 6 5 6 5 5 5 7 8 7 9 10 11 11 10 12 15 15 16 17 16 16 16 17 16 16 16 16 15 13 14 14 14 14 14 15 15 16 17
11 11 8 6 8 7 7 6 5 3 3 2 3 4 5 3 4 4 5 7 5 5 6 2 6 2 1 4 2 1 7 8 7 5 3 4 5 6 5 5 4 4 5 6 7 7 6 6 5 5 5 5 6 7 7 8 8 8 8 9 10 10 11 14 15 14 15 15 15 15 15 15 14 14 14 14 14 14 14 15 15 15 16 16 17
7 7 11 10 6 7 5 6 6 5 4 4 3 5 5 5 3 5 5 6 6 8 7 6 6 3 1 4 5 2 4 8 6 7 7 3 4 5 4 5 4 5 5 6 6 5 5 6 6 6 5 6 7 8 9 10 12 11 12 12 13 14 13 11 14 14 14 14 14 14 14 14 14 14 14 14 14 14 15 15 15 16 16 16 17
8 7 7 8 9 7 7 5 5 6 5 5 3 3 3 1 3 1 5 5 4 6 6 7 7 5 2 1 2 3 4 2 4 7 7 8 5 4 5 5 5 5 5 6 7 6 5 5 7 7 6 7 7 7 8 8 8 9 8 12 13 13 13 12 11 11 13 14 14 13 13 13 14 13 13 14 14 14 14 15 15 16 16 17 17
7 7 7 7 6 6 6 6 5 5 5 6 5 5 4 7 6 3 5 5 6 4 5 5 4 5 4 1 3 3 2 1 2 1 4 8 7 7 7 5 4 4 3 4 6 5 3 3 6 7 6 6 7 7 8 8 8 8 9 12 13 12 11 11 11 11 11 14 15 15 14 14 14 14 13 13 14 14 14 15 15 15 16 16 16
6 6 6 6 6 6 7 6 6 6 5 6 5 4 3 4 4 6 4 6 5 4 4 5 6 6 4 2 2 4 1 2 1 3 3 4 6 9 7 8 7 5 4 4 6 5 5 5 5 7 6 6 7 7 8 8 8 8 8 11 11 10 11 11 11 12 12 12 14 15 15 15 15 14 13 14 14 14 13 14 14 15 15 16 16
5 5 6 5 5 6 6 6 6 5 5 5 4 5 4 4 2 3 5 4 4 7 9 5 5 5 5 4 3 3 4 2 3 3 2 2 6 7 8 8 7 7 6 5 6 7 6 4 5 5 5 6 7 8 8 9 11 10 10 11 11 9 10 11 11 12 12 12 12 13 15 15 14 14 13 13 13 13 14 14 15 15 14 14 15
4 4 4 5 5 4 5 5 5 5 5 4 3 4 4 6 7 6 6 4 4 5 1 4 4 5 5 3 4 4 5 4 4 1 3 4 4 7 8 8 8 7 6 5 6 6 6 6 6 6 6 7 8 8 9 9 9 11 10 9 10 10 9 10 11 11 11 11 11 12 13 14 13 13 13 13 14 14 14 15 15 14 14 14 13
4 3 4 4 4 4 4 4 4 4 4 4 4 5 3 4 3 4 5 8 4 7 6 12 6 5 5 5 4 4 6 7 8 7 4 2 4 7 7 7 7 7 7 7 6 6 5 6 6 6 7 7 8 8 8 9 8 9 11 8 9 9 10 11 10 11 11 11 12 11 12 12 12 12 12 12 13 13 13 13 12 11 12 12 13
4 3 4 3 3 3 3 4 3 3 4 3 3 4 4 4 4 4 5 4 6 4 6 11 5 5 4 6 5 4 3 3 6 5 5 4 5 7 6 6 8 7 7 7 7 7 6 6 6 7 7 7 8 8 8 9 9 8 10 8 8 8 9 9 9 7 10 10 10 10 10 10 11 11 11 11 10 10 11 10 10 10 10 11 11
4 3 3 2 2 2 2 2 3 2 4 4 4 4 3 3 3 3 3 5 5 5 3 10 7 5 5 6 6 4 4 3 3 4 5 4 5 7 6 8 7 7 8 7 7 6 7 6 6 7 7 7 7 8 9 8 9 10 11 8 6 7 8 9 9 9 8 8 9 8 9 8 8 8 8 8 7 7 7 8 8 8 9 9 10
4 4 2 1 2 2 2 3 2 3 3 4 4 4 4 4 3 4 5 3 4 4 3 4 7 10 9 5 5 5 4 4 3 2 3 4 6 6 6 6 7 7 7 7 7 8 8 8 7 8 8 7 7 8 11 11 9 12 10 8 7 5 6 7 7 8 7 7 7 7 6 6 6 6 6 5 6 6 6 6 6 6 6 7 8
4 4 3 2 1 1 3 2 1 2 3 3 3 3 4 4 3 4 4 4 3 5 3 3 3 5 4 5 3 4 5 5 4 5 5 5 6 7 7 6 5 6 6 7 6 7 8 8 7 8 9 8 8 9 9 9 11 10 8 8 7 7 6 7 7 7 7 6 6 5 4 4 4 4 3 4 4 4 4 4 3 4 4 4 6
5 4 3 4 2 1 1 1 1 1 1 2 3 3 3 3 2 3 4 3 2 2 3 3 3 4 5 4 4 4 6 4 4 4 6 9 8 7 8 6 6 6 5 6 7 6 7 7 6 8 9 9 8 8 8 9 14 13 9 9 8 7 10 7 7 6 6 6 5 5 4 4 3 2 2 1 2 1 1 1 1 2 1 3 3
5 5 4 4 3 3 2 2 2 2 2 2 1 2 3 1 2 2 3 4 4 4 3 4 4 4 5 6 5 4 4 5 4 4 6 5 6 6 6 6 5 4 6 5 6 5 6 6 7 8 9 10 8 8 8 10 13 13 7 9 9 13 12 7 8 7 6 6 5 5 5 4 3 2 2 1 2 2 1 2 1 1 0 2 2
5 4 3 4 3 3 3 3 3 3 3 2 2 2 3 3 3 3 3 4 2 2 5 5 4 4 3 4 6 5 4 4 3 6 6 6 5 5 6 3 2 2 4 5 5 7 5 5 6 8 10 9 9 9 8 9 10 15 6 7 10 15 10 7 9 9 9 8 7 6 6 6 4 4 3 3 3 3 2 2 2 2 1 2 1
5 4 5 4 4 3 3 3 3 4 3 2 2 1 2 2 4 4 3 4 7 9 6 6 5 5 6 7 8 7 8 7 7 7 7 7 6 7 4 4 5 5 6 6 7 7 5 4 4 7 8 9 9 9 9 8 10 8 9 7 12 9 9 8 9 13 13 12 10 9 8 6 6 5 5 5 4 4 3 3 2 2 2 3 3
5 5 5 2 2 3 3 3 1 1 2 2 2 2 2 2 2 3 5 6 3 2 4 6 7 8 10 11 9 8 7 5 8 8 8 7 8 8 6 6 7 7 6 8 10 7 7 5 5 5 9 8 7 9 9 8 10 9 10 8 10 10 9 9 9 10 18 15 14 13 10 9 7 6 6 6 6 6 5 4 4 4 4 4 3
4 4 4 4 3 4 3 2 2 2 2 2 1 2 2 1 2 2 2 3 3 2 3 3 4 3 5 4 6 9 7 7 7 7 8 8 8 8 7 6 7 6 7 6 11 9 9 7 5 7 8 7 6 9 10 9 9 10 10 9 10 9 8 9 9 9 18 17 18 14 13 11 10 9 9 8 8 8 7 6 6 7 6 6 6
5 3 4 3 4 3 4 4 4 3 3 3 4 4 4 4 4 5 4 3 3 4 4 6 6 4 2 1 6 7 7 7 7 7 8 9 10 7 8 6 7 7 5 8 6 9 8 8 7 7 8 7 7 7 8 9 9 9 9 9 9 9 9 9 9 8 15 19 17 15 14 12 12 11 11 10 10 9 9 8 8 8 8 7 7
5 4 4 3 3 5 3 4 4 4 4 3 3 2 3 3 3 4 4 4 5 5 6 6 6 6 7 8 6 6 8 9 10 8 8 8 9 6 7 7 6 7 3 3 2 3 7 9 9 8 7 9 7 7 8 9 10 9 9 9 9 10 10 9 8 4 17 18 15 13 13 12 13 12 12 12 11 11 11 10 9 9 8 8 8
5 4 4 3 3 5 6 5 6 5 4 4 4 3 2 1 1 3 3 5 4 5 3 3 3 3 4 4 6 7 7 4 8 7 7 9 8 6 8 7 8 7 5 5 4 4 5 4 7 8 6 5 8 7 7 8 8 8 8 8 8 7 8 7 5 7 6 7 7 6 6 8 11 12 13 12 12 12 12 11 11 10 9 9 8
5 4 4 4 3 3 4 3 3 3 3 3 5 4 4 3 2 1 2 3 3 3 4 3 5 4 4 4 3 4 5 7 5 7 6 6 5 3 5 6 6 8 7 5 6 6 5 4 6 4 6 7 5 6 7 8 8 7 7 7 7 8 7 7 7 7 8 8 9 10 9 10 11 10 12 12 13 12 12 12 11 11 10 10 9
5 4 4 4 3 3 4 3 3 2 2 6 9 7 3 4 3 4 2 2 4 3 3 3 3 3 4 4 4 5 2 1 2 7 7 6 5 5 4 4 4 3 5 6 6 6 7 7 7 6 6 6 6 7 7 7 8 8 9 8 7 6 7 8 8 8 9 9 8 7 7 6 9 8 10 10 11 13 13 12 11 11 11 11 9
4 5 4 4 4 4 5 3 4 5 10 8 6 7 8 9 2 5 4 5 3 4 4 3 3 4 4 4 2 6 9 6 10 10 8 7 1 5 5 4 4 4 5 6 6 6 6 6 6 6 6 7 7 7 7 7 7 7 5 5 7 8 7 4 7 10 9 8 8 7 8 9 9 8 8 8 8 10 11 12 10 11 13 11 10
6 5 5 5 4 5 6 5 9 8 7 5 10 11 7 5 9 4 5 4 5 4 4 6 4 4 5 5 7 8 9 8 8 9 9 8 9 6 4 3 3 5 6 6 6 6 6 6 7 6 7 7 7 6 6 6 6 6 6 6 8 7 7 8 6 4 9 8 6 9 9 10 10 9 10 10 10 11 8 9 9 10 11 12 11
7 5 4 4 5 5 5 7 8 8 6 6 12 11 11 11 7 9 2 3 4 5 5 4 4 5 3 4 7 6 5 4 4 5 5 7 8 7 6 5 4 4 5 5 7 6 6 6 6 7 7 7 7 6 6 8 8 7 7 6 8 7 8 8 8 6 7 6 6 9 9 8 11 10 10 11 10 12 11 11 14 16 15 13 12
6 5 4 3 6 8 8 9 8 7 6 8 11 11 11 11 8 6 5 0 2 3 5 4 5 5 5 4 4 5 4 3 3 7 6 5 2 4 4 6 7 5 2 1 5 6 5 7 7 7 7 7 8 7 8 7 7 6 8 8 8 9 8 8 8 10 6 4 7 8 9 6 11 9 9 9 9 12 12 12 18 18 16 14 12
7 7 6 6 7 7 8 9 8 8 6 11 11 11 10 10 10 8 6 3 4 4 1 3 4 1 3 4 3 2 5 5 2 3 1 5 4 3 2 3 4 6 8 4 3 4 6 7 6 7 8 7 8 8 6 7 7 8 7 7 7 8 8 9 10 9 6 7 7 8 10 9 9 9 9 8 7 8 6 14 19 18 16 14 12
8 8 8 8 8 7 7 8 8 7 8 10 11 12 11 11 10 7 5 2 2 1 1 1 1 0 1 1 2 4 4 1 4 5 3 4 4 4 3 4 5 6 7 9 10 8 5 5 7 7 7 7 7 6 7 6 6 7 9 7 6 9 10 11 9 9 7 9 8 8 9 9 8 8 10 8 8 8 7 12 17 16 16 14 12
7 7 7 8 7 7 7 7 8 8 6 10 12 13 13 13 12 9 2 1 2 2 0 1 2 1 2 2 3 4 5 9 7 9 8 7 6 5 5 6 7 7 7 8 8 7 6 6 7 8 7 8 8 6 5 3 6 8 8 8 8 7 8 8 7 7 4 8 9 7 10 9 7 9 9 8 7 9 9 14 17 16 16 15 13
5 6 7 7 8 8 7 7 7 8 7 13 13 13 14 14 14 7 1 2 2 0 1 1 2 1 0 1 2 2 7 8 9 12 10 7 5 6 7 8 8 7 7 6 4 6 8 7 6 6 6 3 4 3 3 4 6 4 4 6 7 9 10 12 12 9 10 8 8 9 9 9 7 10 7 7 7 9 6 9 15 17 16 15 13
7 7 7 7 7 7 7 7 7 7 8 11 13 14 14 15 11 5 1 2 1 1 1 1 2 1 3 5 5 3 7 7 9 12 12 9 5 6 7 8 8 8 8 6 9 9 10 11 12 11 9 9 9 7 6 8 5 5 5 7 8 8 8 9 10 10 10 6 8 10 8 9 8 8 8 7 8 9 6 10 9 12 15 14 13
7 6 7 7 7 7 8 8 6 7 7 10 13 13 14 15 12 6 4 2 0 2 1 1 3 2 8 10 7 6 8 7 9 11 13 9 5 7 8 9 9 10 8 6 5 3 5 6 10 11 11 11 11 11 10 10 10 6 7 12 11 7 5 9 8 7 8 10 7 6 8 8 6 7 9 9 8 9 10 6 9 8 10 10 13
7 6 6 6 7 7 7 7 8 6 7 8 12 12 13 14 11 7 5 3 2 3 4 4 1 1 8 10 14 12 9 7 10 11 11 9 7 7 8 9 9 9 8 9 7 8 6 7 7 6 8 9 10 10 10 13 12 8 9 12 11 11 11 9 10 12 11 6 3 11 9 8 7 6 8 10 11 8 5 6 9 8 8 8 8
Wind_Direction
215 225 176 214 181 152 161 151 158 148 173 185 186 173 187 219 188 201 204 209 232 122 173 223 159 161 138 148 141 128 119 127 133 108 109 117 121 124 126 131 126 123 122 115 115 117 116 113 109 108 109 103 88 84 91 88 97 99 90 81 78 83 81 79 76 74 75 72 73 70 70 72 66 63 59 56 59 64 60 59 57 55 55 55 51
215 241 199 191 149 146 152 151 155 160 185 185 174 186 175 210 192 201 195 218 186 164 183 207 180 169 143 143 137 137 136 135 138 125 127 122 120 122 122 119 111 126 124 107 113 121 113 112 111 109 104 101 101 95 98 108 86 94 94 91 90 89 86 80 75 78 76 74 72 70 72 74 74 68 65 63 59 59 60 59 61 59 57 55 53
203 208 175 170 162 161 151 157 156 162 159 166 195 175 207 186 203 211 212 200 160 112 188 243 198 156 129 163 137 140 147 124 103 102 119 126 128 123 113 102 86 75 80 95 110 113 116 115 118 119 116 105 104 96 97 118 116 95 96 92 96 92 91 90 82 79 81 79 76 78 77 75 74 72 69 68 62 63 64 61 60 60 58 54 53
160 202 161 172 158 146 152 156 149 162 173 174 188 187 195 196 213 221 234 226 118 150 140 199 149 16 169 165 140 148 133 138 116 124 120 122 125 124 124 112 94 90 90 90 98 110 119 127 127 131 123 114 98 101 104 120 130 132 113 93 87 91 94 92 91 87 83 78 76 75 77 78 79 79 76 72 69 68 67 64 60 63 64 58 54
290 195 179 165 149 149 156 154 148 137 215 180 172 201 169 211 218 200 217 195 118 188 94 132 63 232 138 196 143 151 152 149 117 117 126 128 119 128 135 123 115 104 95 92 84 93 104 103 92 80 70 61 46 48 64 113 133 145 144 118 86 98 92 97 92 88 83 81 76 76 76 78 80 80 77 76 77 70 67 68 66 65 65 62 63
156 183 235 158 154 163 150 152 153 173 180 184 187 203 186 189 176 198 201 198 168 88 124 73 121 200 266 151 163 121 157 142 127 114 104 104 97 60 79 101 117 115 109 91 87 91 87 81 73 79 86 64 34 31 47 62 86 164 159 139 129 110 121 111 111 104 101 95 96 91 88 84 85 86 81 80 82 83 80 74 71 67 61 56 57
174 190 192 147 162 139 145 157 163 187 188 190 288 209 176 182 183 191 167 228 119 110 152 119 154 188 214 55 122 156 137 122 105 107 111 117 101 98 88 93 30 96 92 106 101 90 88 86 69 65 50 42 42 33 31 27 24 110 146 168 158 157 149 154 142 136 128 125 117 106 99 95 90 87 93 85 78 81 79 78 75 70 65 63 58
173 168 147 158 155 150 158 174 192 193 188 207 214 200 174 187 188 54 155 6 62 109 135 128 165 178 152 136 129 161 139 141 116 85 89 84 84 82 90 94 116 118 129 131 121 91 94 91 83 73 59 50 42 37 32 42 22 57 102 151 183 185 177 165 164 165 152 139 136 120 111 105 103 99 86 77 80 83 79 73 72 68 65 63 62
163 165 165 157 153 178 171 184 201 199 193 208 198 206 161 190 77 63 4 95 90 128 162 185 152 106 135 149 133 153 96 82 69 79 76 104 107 101 109 129 130 118 111 104 123 126 112 109 98 81 60 48 48 48 44 42 46 66 91 121 115 169 192 208 202 192 179 169 160 131 128 131 129 119 107 85 82 75 76 74 67 68 65 62 59
167 163 169 164 171 184 188 186 204 183 246 190 199 82 249 109 87 86 47 118 149 118 184 183 152 138 168 147 117 53 28 17 84 115 113 114 90 126 165 125 112 116 134 150 140 128 128 115 107 98 84 71 63 54 44 36 36 51 68 78 102 113 130 174 192 193 197 207 188 180 150 149 156 127 133 119 109 93 75 57 70 77 76 64 59
169 166 181 181 177 188 191 190 170 186 239 211 166 160 211 144 124 123 196 202 170 180 155 183 145 172 103 51 70 110 55 43 46 28 37 95 161 173 195 84 116 168 140 152 133 140 134 126 151 122 103 104 80 69 56 46 31 46 60 70 66 86 78 82 101 120 201 176 192 216 171 171 172 164 142 165 146 138 100 59 80 76 80 85 70
123 212 177 167 126 102 223 197 186 205 215 202 157 166 199 174 155 148 168 191 201 212 157 176 97 68 94 103 63 65 88 75 66 39 261 210 164 112 191 162 164 172 141 140 148 166 158 151 146 217 115 116 110 90 75 50 36 48 57 67 76 85 85 83 80 74 82 85 90 123 143 182 191 189 246 35 161 186 75 136 86 35 40 64 72
170 188 169 136 94 305 113 308 266 223 192 206 162 223 190 180 119 160 156 153 180 191 181 110 100 106 95 117 113 94 111 104 124 182 190 209 253 181 146 125 156 144 115 162 137 137 166 135 146 185 111 115 120 106 89 62 48 56 65 76 83 85 86 81 84 83 80 79 83 89 106 124 145 178 318 29 47 161 205 31 40 355 341 351 40
180 166 156 146 152 185 55 244 251 257 185 198 186 195 188 162 191 168 160 149 151 169 119 108 142 142 137 126 110 87 61 82 196 190 147 160 187 153 148 115 131 116 132 162 150 140 106 112 107 101 120 139 118 127 98 84 69 62 72 80 82 83 83 83 79 80 82 83 84 82 82 85 94 90 79 77 89 80 68 52 14 341 316 304 356
181 166 162 153 152 117 187 214 243 241 217 179 192 205 192 197 180 175 128 179 145 141 145 178 138 141 136 127 141 141 143 138 39 325 326 246 162 152 149 139 121 145 136 118 101 100 92 86 87 78 68 100 83 79 83 77 71 63 69 76 82 86 91 87 83 80 80 81 81 79 77 79 82 80 76 76 78 82 79 73 70 66 66 65 55
177 166 168 150 157 200 218 218 241 206 213 191 196 197 194 199 178 204 108 316 162 157 156 117 137 145 156 160 148 156 146 141 157 181 207 201 167 137 171 122 123 112 118 119 99 93 99 97 91 86 81 81 104 103 93 97 85 70 61 73 81 84 86 84 83 79 76 76 75 76 76 78 77 78 80 76 75 74 73 71 69 67 65 64 61
103 247 96 179 205 201 210 208 210 203 209 222 199 208 190 200 185 210 142 163 187 125 196 134 198 265 147 138 152 174 160 145 140 127 174 155 117 94 86 120 110 134 127 103 118 114 112 104 95 99 93 88 91 108 110 105 95 90 72 52 63 78 80 84 84 84 85 83 82 80 78 78 77 78 77 78 80 79 76 74 72 69 67 66 64
187 183 174 211 210 209 206 207 198 208 249 244 228 221 207 192 163 184 98 103 160 154 165 154 195 230 355 31 331 314 156 148 151 141 165 100 125 126 131 94 127 129 106 121 112 117 120 116 105 94 101 99 84 77 77 74 73 72 77 57 50 59 86 90 90 91 88 87 86 84 81 79 78 77 77 79 79 77 77 76 73 70 69 68 66
195 182 167 180 185 210 199 215 193 200 211 243 201 225 197 193 135 142 146 144 148 170 163 169 179 188 30 4 352 9 134 159 158 141 136 133 83 124 121 134 164 136 129 111 106 93 87 95 113 110 99 92 97 98 93 87 78 75 60 63 62 63 59 68 88 90 91 91 90 88 86 84 82 81 80 81 80 78 77 77 74 72 70 68 67
185 188 182 178 183 187 189 195 201 193 197 221 217 225 204 141 100 61 118 133 151 182 163 165 177 150 89 31 335 333 167 51 153 156 147 140 149 140 106 86 64 53 72 97 101 104 123 146 142 142 134 123 113 105 96 94 88 80 66 64 69 67 66 64 63 80 91 91 89 88 86 84 83 81 83 83 82 81 80 77 76 74 71 69 68
179 184 186 178 182 186 187 188 199 195 201 211 208 219 198 131 128 157 137 142 185 168 189 153 174 149 136 151 26 331 76 32 337 19 156 149 149 157 149 120 106 93 81 102 113 120 116 90 84 92 100 104 110 105 98 94 92 87 74 69 72 70 68 67 67 69 77 87 89 90 90 89 85 83 82 82 81 82 81 79 78 77 75 75 73
174 176 181 172 176 184 195 190 190 204 199 221 208 207 165 98 144 169 149 151 178 183 87 195 173 126 113 116 114 98 311 301 282 38 352 199 164 161 152 152 149 130 129 140 141 127 123 138 152 120 112 108 100 98 99 105 106 101 78 76 73 71 71 68 68 69 73 80 87 88 88 86 84 81 77 77 77 76 76 77 78 76 76 76 76
161 166 173 163 183 180 191 189 192 194 203 216 203 207 172 130 130 158 157 172 201 146 183 127 108 122 137 147 139 148 152 185 126 134 171 285 180 156 158 167 136 140 163 156 154 158 143 129 112 117 119 109 99 94 88 83 82 85 79 80 76 71 73 72 68 66 70 77 79 84 87 85 84 81 79 77 75 70 67 65 62 66 72 75 77
153 151 162 163 165 177 191 191 191 196 204 215 196 220 180 176 167 189 171 172 221 108 185 122 142 156 142 139 160 155 143 139 135 147 159 219 192 164 169 149 149 149 140 160 175 144 152 154 133 126 124 112 103 98 101 101 101 106 99 81 84 81 81 78 75 72 68 68 78 85 87 85 82 80 75 73 69 65 63 61 55 47 48 56 68
148 146 142 164 163 172 172 194 191 199 205 210 189 225 187 168 177 166 200 156 218 168 179 142 164 139 175 166 181 172 172 167 166 171 173 223 229 167 166 155 143 139 148 168 159 157 148 143 139 141 120 117 123 121 115 117 119 109 109 82 82 85 87 89 82 79 75 71 64 66 83 85 83 78 73 68 65 64 62 58 53 44 43 35 33
142 145 135 163 152 154 172 179 202 195 200 206 206 212 187 212 188 199 191 123 209 178 160 118 181 147 174 178 168 185 209 161 137 158 158 185 207 176 168 139 144 151 152 168 156 150 156 152 148 127 131 129 115 121 119 115 116 137 118 111 88 87 91 93 91 87 89 83 79 73 68 72 76 76 73 68 63 58 59 57 53 53 51 46 39
120 104 128 142 124 136 151 194 185 186 189 185 197 191 178 226 187 186 229 165 200 179 209 140 169 186 198 199 177 173 192 181 154 185 173 192 204 174 172 155 160 159 165 151 161 154 149 139 143 137 122 114 125 121 127 130 123 125 136 128 110 99 105 106 104 101 96 96 91 88 82 78 77 77 74 71 66 60 61 60 59 57 52 49 44
101 120 121 135 141 186 186 178 185 177 193 190 182 189 177 200 175 180 207 196 180 183 176 164 163 174 205 176 176 183 187 189 163 189 192 209 201 176 172 176 166 157 162 155 172 135 158 144 146 133 129 139 132 120 116 126 138 163 164 135 141 132 122 121 116 115 109 111 107 99 97 89 88 90 84 81 74 68 67 62 59 54 55 52 52
120 124 142 115 112 264 227 156 161 172 194 193 185 188 182 199 188 175 201 184 197 175 207 175 175 157 155 169 169 188 189 179 187 206 196 227 216 179 184 178 179 158 164 164 149 137 164 153 152 143 144 143 132 130 142 153 150 175 166 149 151 151 146 144 136 128 126 128 126 125 118 114 102 89 83 77 73 72 67 64 59 53 46 53 57
140 139 137 133 124 181 265 109 161 203 186 202 200 188 180 206 194 186 179 181 152 312 183 193 154 149 132 178 179 190 186 193 182 196 198 195 192 176 208 158 202 170 171 169 139 169 150 167 156 146 154 149 145 151 160 151 162 201 164 157 160 157 151 159 151 146 141 140 141 147 146 144 134 130 109 103 87 78 51 8 34 34 45 73 62
136 136 145 142 148 137 132 174 190 190 202 189 214 195 215 140 199 180 166 189 183 185 158 178 154 160 147 170 194 185 188 182 186 196 203 171 174 190 223 163 218 142 185 158 152 158 153 177 148 147 156 158 160 161 167 153 172 206 208 156 173 137 155 165 169 165 164 166 162 167 171 169 173 165 165 170 191 180 240 259 282 278 142 84 51
122 137 144 133 151 150 159 171 189 206 206 209 209 217 228 185 174 192 184 210 219 182 195 161 173 165 164 187 179 190 199 196 169 203 185 164 181 206 220 166 170 110 195 149 166 140 158 169 144 148 155 161 164 168 172 153 167 198 211 188 138 144 170 175 182 180 178 178 183 187 189 178 191 195 196 198 193 194 218 207 244 224 125 108 103
133 155 150 163 158 173 175 187 195 190 202 205 218 243 223 230 169 167 232 226 196 197 189 166 190 157 215 203 185 175 199 168 207 180 162 170 184 227 217 146 161 178 204 154 143 142 141 160 166 157 156 164 173 175 177 161 160 192 233 165 142 168 180 195 180 187 186 185 186 190 194 189 187 199 195 195 189 185 179 187 187 157 152 155 166
160 152 147 145 151 174 188 170 171 282 172 185 227 222 229 194 210 189 190 207 222 174 182 180 186 175 184 184 178 177 190 178 183 175 163 179 181 200 163 175 163 186 212 180 147 148 153 165 187 171 153 189 182 183 180 168 164 187 205 194 165 194 202 210 194 185 191 186 185 185 191 187 186 192 187 184 186 174 172 165 151 149 142 137 126
155 159 131 172 180 177 156 126 145 140 183 155 147 197 189 188 192 211 201 195 201 155 178 177 180 197 146 205 173 173 167 172 186 188 161 185 199 194 159 182 156 190 210 222 137 156 158 176 186 191 164 181 221 179 190 178 177 188 200 212 198 195 209 211 222 190 183 188 183 184 184 181 180 182 183 186 177 171 160 157 153 143 138 133 130
153 137 132 178 163 154 133 148 127 126 139 150 157 180 176 174 181 171 178 163 167 163 175 175 156 160 141 242 171 173 138 170 196 197 178 193 210 176 152 189 152 194 182 301 162 151 177 159 197 208 166 178 209 224 190 186 186 194 203 207 218 215 206 213 223 226 177 181 180 182 182 181 178 179 181 181 177 168 163 161 154 147 142 140 134
138 143 162 147 173 151 149 148 143 143 140 160 160 167 145 183 177 153 171 154 158 178 183 203 154 150 153 169 226 152 172 189 183 209 184 205 231 156 177 172 185 172 183 220 253 206 169 183 172 227 183 172 198 218 214 196 188 200 209 218 217 215 218 223 226 130 151 171 174 179 183 179 179 179 179 179 175 169 165 162 158 153 148 141 137
140 170 152 173 173 153 178 189 185 142 171 145 158 157 166 266 164 166 144 140 176 194 129 155 116 120 160 168 164 189 153 206 196 206 195 199 228 172 184 184 181 159 184 183 240 239 252 219 167 169 268 189 190 203 224 214 208 200 204 218 227 236 236 219 189 124 137 163 173 178 182 187 185 181 179 178 175 171 166 164 160 157 153 149 147
153 156 160 150 191 153 180 166 141 164 147 171 163 149 164 188 229 99 129 148 154 119 178 224 155 159 196 149 190 180 189 183 168 214 209 201 237 243 192 211 203 163 169 193 204 216 248 238 251 219 192 228 240 200 208 228 223 231 237 209 233 234 226 224 238 148 160 171 176 172 180 198 176 186 180 179 176 173 170 169 166 164 161 159 154
151 151 150 157 156 194 119 172 103 90 66 31 24 15 347 182 171 200 204 215 166 151 170 166 159 177 194 156 175 191 189 77 196 191 204 190 209 221 207 221 241 240 183 194 221 229 205 216 222 223 219 218 201 238 247 220 223 218 230 247 238 212 218 224 221 221 181 160 166 174 170 189 159 171 161 183 183 177 175 173 174 167 168 161 161
138 131 146 144 166 133 124 120 134 71 44 32 26 3 3 347 228 180 212 208 227 186 198 200 182 215 191 191 99 64 64 61 59 42 35 33 251 216 215 221 237 229 223 224 218 219 231 225 218 226 231 217 224 209 214 245 255 245 228 220 250 270 275 242 208 207 228 206 174 182 184 186 185 185 188 191 191 184 183 186 173 176 170 166 169
131 131 136 145 147 147 152 121 64 53 43 39 360 2 5 347 348 300 168 206 211 212 211 206 197 213 205 142 80 70 60 59 57 51 40 46 58 38 7 335 253 232 223 243 241 230 229 227 226 228 222 233 233 222 228 222 245 274 267 262 266 261 239 256 275 235 193 235 193 197 195 183 192 190 197 205 180 184 187 197 189 182 175 175 172
115 122 132 141 150 155 130 88 73 62 46 15 353 1 353 7 355 347 355 184 210 209 211 216 192 194 212 179 116 112 121 113 122 102 78 33 32 51 47 60 66 15 321 260 236 250 255 246 240 232 234 243 240 244 237 231 224 225 240 247 257 265 277 271 261 258 251 235 233 246 255 185 189 204 206 214 181 183 200 201 186 168 169 177 174
115 117 128 123 87 78 84 86 78 72 59 9 3 360 2 359 7 337 321 295 229 214 212 203 198 189 194 183 159 158 175 65 90 151 145 132 113 35 24 7 356 6 109 337 320 300 280 268 265 262 264 254 256 251 250 251 257 239 230 234 239 243 253 262 255 257 261 199 228 242 241 226 186 214 218 226 174 183 200 185 162 160 167 172 175
102 103 96 104 111 91 89 88 82 69 63 25 1 9 3 357 349 336 296 216 188 204 264 255 330 265 180 165 160 214 93 76 281 279 252 160 128 96 12 325 301 279 286 263 231 261 319 316 292 272 262 268 270 264 270 281 283 273 269 259 252 255 245 246 253 260 262 156 194 218 234 235 217 199 233 232 218 162 124 144 152 157 164 171 173
80 95 101 98 99 97 94 94 85 70 55 9 8 9 7 354 347 334 297 26 346 27 186 299 108 232 91 247 206 195 191 170 18 344 278 266 183 180 202 229 250 231 229 244 244 250 246 269 286 285 288 287 279 290 302 284 270 266 265 259 275 271 262 260 270 268 261 162 202 212 237 237 243 202 222 226 233 133 157 144 153 160 165 171 173
98 100 104 101 98 100 95 89 87 73 44 9 16 13 8 357 341 321 288 289 242 188 149 116 263 31 331 337 319 308 57 54 27 10 21 6 340 309 288 264 251 250 243 230 226 234 227 230 253 266 276 279 284 291 290 312 285 269 267 271 268 273 275 278 260 241 186 187 213 217 248 247 235 217 223 229 230 207 160 157 161 166 171 172 174
92 102 104 108 108 105 101 94 91 73 46 22 16 16 10 2 338 291 223 212 226 308 146 133 259 156 32 6 315 10 57 63 22 27 25 352 321 297 288 281 277 274 268 264 266 228 228 238 247 268 285 336 35 357 334 298 261 240 278 290 282 268 265 256 252 243 236 224 209 227 242 248 241 263 229 232 227 247 145 157 166 173 174 171 175
89 89 89 87 87 94 97 98 86 72 52 22 19 16 12 4 355 343 326 248 166 186 172 345 261 171 79 39 12 19 95 61 29 32 16 355 312 300 290 289 288 285 291 295 55 34 15 358 340 323 312 302 297 294 289 292 279 290 250 251 250 255 265 281 283 280 262 228 224 212 232 250 246 247 243 222 252 253 210 156 170 179 170 172 176
87 87 89 83 80 73 69 63 62 81 62 38 24 19 12 7 352 343 326 332 84 321 264 162 314 65 77 52 27 49 72 61 44 40 19 351 327 310 304 297 290 281 275 277 276 254 170 232 256 265 273 283 283 284 280 274 275 278 243 247 247 227 221 234 260 249 255 260 243 194 211 235 244 242 250 241 223 230 252 163 152 159 167 174 186
78 86 89 93 90 83 78 76 23 55 80 57 33 21 12 12 4 346 345 354 355 24 353 324 5 346 104 60 53 57 66 62 46 42 32 17 346 334 330 315 298 287 293 316 304 292 287 279 273 266 255 243 245 247 252 241 239 245 250 254 259 253 247 235 236 256 271 283 265 172 214 223 229 230 238 249 249 252 223 141 144 161 179 186 195